Necker Belle — MKYK7 — position and weather

sailwx.info

Track history (hours):
 
Tides and Currents Weather Stations Pressure Air Temp Water Temp Dewpoint Dewpoint Depression Visibility Wind Speed Wind Dir Waves Ship Positions

Necker Belle

Last reported at 2016-Jul-09 17:31 UTC. Time now 2016-Jul-25 10:00 UTC.
Position N 18°20' W 064°49'.
Warning: this ship's position is 15 days out of date.

Length 32 m.

Type: Sailing vessel. MMSI: 232728000.

Date/timePositionNaut miles runAvg speedWind from/ knotsBaromVisibWave heightAir tempDewpointWater temp
2016-Jul-09 17:31N 18°20' W 064°49'2 1.5
2016-Jul-09 16:29N 18°20' W 064°48'8 8.2
2016-Jul-09 15:32N 18°23' W 064°40'  
2016-Jul-02 13:26N 18°27' W 064°27'0 0.0
2016-Jul-02 12:32N 18°26' W 064°27'0 0.0
2016-Jul-02 11:32N 18°26' W 064°27'0 0.0
2016-Jul-02 10:32N 18°26' W 064°27'0 0.0
2016-Jul-02 09:26N 18°27' W 064°27'0 0.0
2016-Jul-02 07:32N 18°27' W 064°27'0 0.0
2016-Jul-02 03:08N 18°26' W 064°27'0 0.0
2016-Jul-02 02:32N 18°26' W 064°27'0 0.0
2016-Jul-02 01:32N 18°26' W 064°27'0 0.0
2016-Jul-02 00:32N 18°26' W 064°27'0 0.0
2016-Jul-01 23:32N 18°26' W 064°27'0 0.0
2016-Jul-01 22:17N 18°26' W 064°27'0 0.0
2016-Jul-01 21:29N 18°26' W 064°27'0 0.0
2016-Jul-01 20:29N 18°26' W 064°27'0 0.0
2016-Jul-01 19:29N 18°26' W 064°27'3 2.8
2016-Jul-01 18:33N 18°25' W 064°29'4 0.4
2016-Jul-01 08:25N 18°23' W 064°32'0 0.0
2016-Jul-01 07:19N 18°23' W 064°32'0 0.0
2016-Jul-01 06:28N 18°23' W 064°32'0 0.0
2016-Jul-01 04:28N 18°23' W 064°32'0 0.0
2016-Jul-01 03:28N 18°23' W 064°32'0 0.0
2016-Jul-01 02:16N 18°23' W 064°32'0 0.0
2016-Jul-01 00:13N 18°23' W 064°32'0 0.0
2016-Jun-30 23:28N 18°23' W 064°32'1 0.2
2016-Jun-30 20:24N 18°23' W 064°32'3 3.0
2016-Jun-30 19:32N 18°23' W 064°35'  
Track history (hours):
 
Tides and Currents Weather Stations Pressure Air Temp Water Temp Dewpoint Dewpoint Depression Visibility Wind Speed Wind Dir Waves Ship Positions

Necker Belle

Last reported at 2016-Jul-09 17:31 UTC. Time now 2016-Jul-25 10:00 UTC.
Position N 18°20' W 064°49'.
Warning: this ship's position is 15 days out of date.

Length 32 m.

Type: Sailing vessel. MMSI: 232728000.

Date/timePositionNaut miles runAvg speedWind from/ knotsBaromVisibWave heightAir tempDewpointWater temp
2016-Jul-09 17:31N 18°20' W 064°49'2 1.5
2016-Jul-09 16:29N 18°20' W 064°48'8 8.2
2016-Jul-09 15:32N 18°23' W 064°40'  
2016-Jul-02 13:26N 18°27' W 064°27'0 0.0
2016-Jul-02 12:32N 18°26' W 064°27'0 0.0
2016-Jul-02 11:32N 18°26' W 064°27'0 0.0
2016-Jul-02 10:32N 18°26' W 064°27'0 0.0
2016-Jul-02 09:26N 18°27' W 064°27'0 0.0
2016-Jul-02 07:32N 18°27' W 064°27'0 0.0
2016-Jul-02 03:08N 18°26' W 064°27'0 0.0
2016-Jul-02 02:32N 18°26' W 064°27'0 0.0
2016-Jul-02 01:32N 18°26' W 064°27'0 0.0
2016-Jul-02 00:32N 18°26' W 064°27'0 0.0
2016-Jul-01 23:32N 18°26' W 064°27'0 0.0
2016-Jul-01 22:17N 18°26' W 064°27'0 0.0
2016-Jul-01 21:29N 18°26' W 064°27'0 0.0
2016-Jul-01 20:29N 18°26' W 064°27'0 0.0
2016-Jul-01 19:29N 18°26' W 064°27'3 2.8
2016-Jul-01 18:33N 18°25' W 064°29'4 0.4
2016-Jul-01 08:25N 18°23' W 064°32'0 0.0
2016-Jul-01 07:19N 18°23' W 064°32'0 0.0
2016-Jul-01 06:28N 18°23' W 064°32'0 0.0
2016-Jul-01 04:28N 18°23' W 064°32'0 0.0
2016-Jul-01 03:28N 18°23' W 064°32'0 0.0
2016-Jul-01 02:16N 18°23' W 064°32'0 0.0
2016-Jul-01 00:13N 18°23' W 064°32'0 0.0
2016-Jun-30 23:28N 18°23' W 064°32'1 0.2
2016-Jun-30 20:24N 18°23' W 064°32'3 3.0
2016-Jun-30 19:32N 18°23' W 064°35'  

Dump ship's entire track history